STARLINK-3550, 52373

Orbit data source: Space-Track

STARLINK-3550, 52373 is a payload satellite owned by SpaceX/Seattle (US) in LEO that was launched on Fri, 29 Apr 2022 UTC via an FALCON 9 launch vehicle from the Air Force Eastern Test Range (AFETR). Payload-class satellites include a variety of spacecraft equipped with specific instruments for various scientific and technological missions. These include communications satellites like Starlink; space stations such as the ISS; scientific satellites like the Hubble; Earth observation satellites from companies like Planet Labs, Umbra, and HawkEye 360; GPS; miniature CubeSats for education and research; and military/defense satellites.

Loading next visibility...
Identifier
52373, 2022-045AU
Orbit
LEO
Country
Flag of USUS
Related business
Manufacturer
SpaceX/Seattle
Mission
Operational Commercial Communications
Bus & Motor
STARLINK, Unknown motor
Mass
297 kg wet, ~275 kg dry
Launch date (UTC)
2022-04-29 (4 years ago)
Launch vehicle
FALCON 9
Launch site
Air Force Eastern Test Range (AFETR)
Object type
Payload
Rocket body
Debris
Shape & HBR
Box + 1 Pan, 10.1 m
Radar Cross Section
11.087 m², Large (>1 m²)

Expand to show TLE details & history
Last TLE update: 19 hours ago

TLE from 19 hours ago
0 STARLINK-3550
1 52373U 22045AU  25348.89519766  .00000636  00000-0  58040-4 0  9992
2 52373  53.2168 209.7793 0001526  87.8502 272.2665 15.08837805203121
Epoch: 2025-12-14T21:29Z
TLE epoch observation values (Epoch: 2025-12-14T21:29:05.077Z)
Latitude
-0.00003°
Longitude
163.70657°
Altitude
540.606 km
Speed
7.593 km/s
True Right ascension
13h 59m 07s
True Declination
0° 00' 00"
Sunlit
Object was in daylight at epoch
Visualization orbit readout
Latitude
Unknown
Longitude
Unknown
Altitude
Unknown
Speed
Unknown
Apparent Right ascension
Unknown
Apparent Declination
Unknown
Sunlit
N/A
Visualization observer readout
Local Sidereal Time
15:08:56
Azimuth
Unknown
Elevation
Unknown
Doppler factor
Unknown
Orbital elements
Apogee altitude
541.051 km
Perigee altitude
538.939 km
Semi-major axis
6,918.132 km
Eccentricity
0.00015
Inclination
53.2168°
RAAN
209.7793°
Arg. of periapsis
87.8502°
True anomaly
272.24903°
Mean anomaly
272.2665°
Eccentric anomaly
272.25776°
Mean motion
3.7719 °/min
Orbital period
95.44 mins
BSTAR
0.00005804
Loading maneuver chart data...
Computing Atmospheric mass density...
Loading historical data...
Loading historical data...
Loading historical data...
Loading historical data...
Loading historical data...
Loading historical data...
Loading historical data...

Documentation

Showing up to 5 results
|